Regional Weather Roundup
Issued by NWS

Home | Current Version | Previous Version | Graphics & Text | Print | Product List | Glossary On
Versions: 1 2 3 4 5 6 7 8 9 10 11 12 13 14 15 16 17 18 19 20 21 22 23 24 25 26 27 28 29 30 31 32 33 34 35 36 37 38 39 40 41 42 43 44 45 46 47 48 49 50
000
ASUS43 KLSX 041107
RWRMO

WEATHER SUMMARY FOR MISSOURI
NATIONAL WEATHER SERVICE SPRINGFIELD MO
600 AM CDT FRI SEP 04 2015

NOTE: "FAIR" INDICATES FEW OR NO CLOUDS BELOW 12,000 FEET WITH NO
       SIGNIFICANT WEATHER AND/OR OBSTRUCTIONS TO VISIBILITY.
       CURRENT SKY AND/OR WEATHER CONDITIONS ARE NOT AVAILABLE FOR
       CHILLICOTHE AND FARMINGTON.

MOZ001>031-035>038-043-044-053-054-041200-
...NORTHERN AND WESTERN MISSOURI...

CITY           SKY/WX    TMP DP  RH WIND       PRES   REMARKS
KANSAS CTY INT PTCLDY    72  67  84 S9        29.93S
KANSAS C DTWN  PTCLDY    76  68  76 S6        29.93R
LEE`S SUMMIT   PTCLDY    73  67  81 S6        29.95S
ST JOSEPH      PTCLDY    71  67  87 S5        29.92S
CHILLICOTHE      N/A     69  68  96 CALM      29.96S
KIRKSVILLE     CLEAR     68  66  93 S3        29.98S

$$
MOZ066>068-077>081-088>096-101>105-041200-
...SOUTHWEST MISSOURI...

CITY           SKY/WX    TMP DP  RH WIND       PRES   REMARKS
SPRINGFIELD    PTCLDY    72  67  84 SE9       30.00R
JOPLIN         PTCLDY    72  66  81 S8        29.97R

$$
MOZ032>034-039>042-045>050-055>058-069>072-041200-
...CENTRAL MISSOURI...

CITY           SKY/WX    TMP DP  RH WIND       PRES   REMARKS
COLUMBIA       PTCLDY    71  68  90 SE6       29.98S
JEFFERSON CITY PTCLDY    69  67  93 SE3       29.97S
ROLLA          PTCLDY    70  66  87 S8        29.99S
SEDALIA        PTCLDY    71  67  87 S8        29.98R
WHITEMAN AFB   CLEAR     70  67  92 S7        29.95S
WARRENSBURG    CLEAR     70  66  88 SE3       29.95S
OSAGE BEACH    CLEAR     70  64  83 S3        29.99R

$$
MOZ051-052-059>065-041200-
...EAST CENTRAL MISSOURI...

CITY           SKY/WX    TMP DP  RH WIND       PRES   REMARKS
ST LOUIS INTL  PTCLDY    77  68  73 CALM      30.00R
SPIRIT OF STL  CLEAR     69  69 100 CALM      29.98R FOG
ST CHARLES     MOCLDY    69  69 100 CALM      29.98R FOG

$$
MOZ072>076-082>087-097>100-106>115-041200-
...SOUTH CENTRAL AND SOUTHEAST MISSOURI...

CITY           SKY/WX    TMP DP  RH WIND       PRES   REMARKS
CAPE GIRARDEAU CLEAR     66  65  96 CALM      29.99R FOG
FARMINGTON     CLEAR     68  66  94 CALM      30.04R
POPLAR BLUFF   CLEAR     67  66  97 CALM      29.98R FOG
WEST PLAINS    CLEAR     68  65  90 CALM      30.03S

$$



USA.gov is the U.S. government's official web portal to all federal, state and local government web resources and services.